Flag for Germany Weather past 2 weeks in Bad Neuenahr-Ahrweiler, Rhineland-Palatinate, Germany

Now
63 °F

Passing clouds.


Feels Like: 63 °F
Forecast: 69 / 94 °F
Wind: 5 mph from East

Location: Bonn-Hangelar

Current Time: Jul 1, 2015 at 4:24:21 AM

Latest Report: Jul 1, 2015 at 4:00 AM


Visibility: 22 mi

Pressure: 30.07 "Hg

Humidity: 69%

Dew point: 52 °F

Location of Bad Neuenahr-AhrweilerLocation

Historic Weather in Bad Neuenahr-Ahrweiler — Graph

°F

Bad Neuenahr-Ahrweiler temperature yesterday

Maximum temperature yesterday: 81 °F (at 6:00 PM)
Minimum temperature yesterday: 56 °F (at 5:00 AM)
Average temperature yesterday: 70 °F

Past Weeks' High & Low Weather Summary

 TemperatureHumidityPressure
High81 °F (Jun 30, 6:00 PM)100% (Jun 18, 4:00 AM)30.32 "Hg (Jun 18, 4:00 AM)
Low43 °F (Jun 17, 6:00 AM)32% (Jun 30, 7:00 PM)29.72 "Hg (Jun 22, 8:00 PM)
Average60 °F76%30.10 "Hg
* Reported Jun 16 3:00 AM — Jul 1 3:00 AM, Bad Neuenahr-Ahrweiler, Weather by CustomWeather, © 2015

Note: Actual official high and low records may vary slightly from our data, if they occured in-between our weather recording intervals... More about our weather records

Advertising

Bad Neuenahr-Ahrweiler weather history for previous 24 hours

 ConditionsComfort  
Time TempWeatherWind HumidityBarometerVisibility
3:00 AM
Wed, Jul 1
60 °FClear.5 mph76%30.08 "Hg18 mi
2:00 AM64 °FClear.5 mph67%30.09 "Hg22 mi
1:00 AM63 °FClear.6 mph63%30.09 "Hg31 mi
12:00 AM63 °FClear.5 mph63%30.09 "Hg31 mi
11:00 PM
Tue, Jun 30
66 °FClear.5 mph58%30.09 "Hg31 mi
10:00 PM68 °FClear.5 mph54%30.09 "Hg37 mi
9:00 PM74 °FSunny.5 mph40%30.07 "Hg40 mi
8:00 PM78 °FSunny.6 mph33%30.07 "Hg31 mi
7:00 PM80 °FSunny.6 mph32%30.07 "Hg17 mi
6:00 PM81 °FSunny.6 mph35%30.07 "Hg19 mi
4:00 PM80 °FSunny.5 mph36%30.10 "Hg22 mi
3:00 PM79 °FSunny.3 mph40%30.12 "Hg17 mi
2:00 PM77 °FSunny.3 mph43%30.14 "Hg8 mi
1:00 PM76 °FSunny.3 mph50%30.15 "Hg14 mi
12:00 PM74 °FSunny.3 mph52%30.16 "Hg12 mi
11:00 AM73 °FSunny.3 mph57%30.17 "Hg12 mi
10:00 AM71 °FSunny.2 mph61%30.18 "Hg12 mi
9:00 AM69 °FSunny.2 mph69%30.18 "Hg11 mi
8:00 AM65 °FSunny.2 mph82%30.19 "Hg9 mi
7:00 AM60 °FSunny.1 mph88%30.19 "Hg7 mi
5:00 AM56 °FClear.1 mph90%30.19 "Hg12 mi
4:00 AM58 °FClear.1 mph81%30.19 "Hg12 mi
Weather by CustomWeather, © 2015

See weather overviewHow to use our weather pages